sat.trackr.live / text

‹ back to catalog

STARLINK-6169

NORAD 56889 · 2023-083P

PAYLOAD ACTIVE UNKNOWN

§ Identity

Operator
Country
US
Launch date
2023-06-12
Launch site
AFETR
Launch vehicle
Mass (kg)
RCS (m²)

Purposes: comms

External: N2YO · Heavens-Above · Gunter

§ Orbital elements

Epoch: 2026-05-24T23:52:16.255776Z

Period
94.27 min
Inclination
43.0028°
Eccentricity
0.0001365
Mean motion
15.27586703 rev/d
Perigee alt
482.1 km
Apogee alt
484.0 km
Semi-major
6,861.2 km
B*
7.5574e-5
RAAN
13.9676°
Arg perigee
274.1020°
Mean anomaly
85.9676°
Rev number
16,329

§ Raw data

STARLINK-61691 56889U 23083P   26144.99463259  .00001818  00000+0  75574-4 0  99952 56889  43.0028  13.9676 0001365 274.1020  85.9676 15.27586703163294

JSON: /api/v1/satellites/56889 · /tle

For live sub-satellite position, see the globe view (requires WebGL).

§ Visibility from observer

Set your observer location to see the next 7 days of passes ≥ 10°. The values pass through the URL so the page stays shareable.

No JS? Fill the form by hand. The geolocation button needs JavaScript.